Header for Extended Forecast Station List Page

Search by: ID | Name | Date | Parm | Value | Avg | % Avg
Sort by: ID | Name | Date | Parm | Value | Avg | % Avg

Enter search or view all records.

Click on id for station plot
#IDNameDateParmValueAvg% Avg
0ABOM8CLARK FORK-ABOVE MISSOULA05-10-2021DISCHARGE (KAF)1051122985
1AFRI1SNAKE-AMERICAN FALLS RESERVOIR05-10-2021INFLOW (KAF)1306200465
2ALFW1PEND OREILLE-ALBENI FALLS DAM05-10-2021INFLOW (KAF)6895920775
3ALPW4SNAKE-NEAR ALPINE05-10-2021DISCHARGE (KAF)1265211660
4ANAW1SNAKE-NEAR ANATONE05-10-2021DISCHARGE (KAF)57421055454
5ANTI1HENRYS FORK-AT ST. ANTHONY05-10-2021DISCHARGE (KAF)33254161
6ARAI1SF BOISE-ANDERSON RANCH DAM05-10-2021INFLOW (KAF)12837834
7ARDW1ENTIAT-NEAR ARDENVOIR05-10-2021DISCHARGE (KAF)196179110
8BELM8CLARK FORK-BELOW MISSOULA05-10-2021DISCHARGE (KAF)1895232681
9BERO3MALHEUR-AGENCY VALLEY DAM05-10-2021INFLOW (KAF)121961
10BFEI1KOOTENAI-AT BONNERS FERRY05-10-2021STAGE (FT)MMM
11BFTI1SNAKE-NEAR BLACKFOOT05-10-2021DISCHARGE (KAF)795138857
12BIGI1BOISE-AT GLENWOOD BRIDGE05-10-2021DISCHARGE (KAF)26538070
13BITM8BITTERROOT-NEAR MISSOULA05-10-2021DISCHARGE (KAF)844106379
14BONM8BLACKFOOT-NEAR BONNER05-10-2021DISCHARGE (KAF)59269585
15BONO3COLUMBIA-BONNEVILLE DAM05-10-2021INFLOW (KAF)419075458377
16BRNI1SNAKE-BROWNLEE DAM05-10-2021INFLOW (KAF)2656406865
17BUDW1BUMPING-BUMPING LAKE DAM05-10-2021INFLOW (KAF)879493
18BULO3BULLY CREEK-BULLY CREEK DAM05-10-2021INFLOW (KAF)M0M
19CABI1CLARK FORK-CABINET GORGE DAM05-10-2021INFLOW (KAF)6359810079
20CFMM8FLATHEAD-AT COLUMBIA FALLS05-10-2021DISCHARGE (KAF)3076358786
21CHDW1CHELAN-LAKE CHELAN DAM05-10-2021INFLOW (KAF)1010906112
22CHEI1FALL RIVER-NEAR CHESTER05-10-2021DISCHARGE (KAF)15426558
23CHJW1COLUMBIA-CHIEF JOSEPH DAM05-10-2021INFLOW (KAF)253463056783
24CIBW1COLUMBIA-AT INTL BOUNDARY05-10-2021DISCHARGE (KAF)25137MM
25CLFW1NACHES-NEAR CLIFFDEL05-10-2021DISCHARGE (KAF)283279101
26CLUW1CLE ELUM-CLE ELUM LAKE05-10-2021INFLOW (KAF)338303112
27COEI1COEUR D ALENE-COEUR D ALENE LAKE05-10-2021INFLOW (KAF)962144866
28CSDI1NF PAYETTE-CASCADE DAM05-10-2021INFLOW (KAF)19736554
29DEDI1DEADWOOD-NEAR LOWMAN05-10-2021INFLOW (KAF)5411348
30DLGM8CLARK FORK-AT DEER LODGE05-10-2021DISCHARGE (KAF)466471
31DRMM8CLARK FORK-NR DRUMMOND05-10-2021DISCHARGE (KAF)187MM
32DWRI1NF CLEARWATER-DWORSHAK DAM05-10-2021INFLOW (KAF)1344184273
33EASW1YAKIMA-AT EASTON05-10-2021DISCHARGE (KAF)10089112
34EMMI1PAYETTE-NEAR EMMETT05-10-2021DISCHARGE (KAF)45696847
35FCFM8NF FLATHEAD-NEAR COLUMBIA FALLS05-10-2021DISCHARGE (KAF)944142666
36GCDW1COLUMBIA-GRAND COULEE DAM05-10-2021INFLOW (KAF)271754083567
37GIBO3UMATILLA-NEAR GIBBON05-10-2021DISCHARGE (KAF)3733111
38HALI1BIG WOOD-AT HAILEY05-10-2021DISCHARGE (KAF)6720633
39HEII1SNAKE-NEAR HEISE05-10-2021DISCHARGE (KAF)2785307491
40HHWM8SF FLATHEAD-HUNGRY HORSE DAM05-10-2021INFLOW (KAF)1364159985
41HODO3HOOD-NEAR TUCKER BRIDGE05-10-2021DISCHARGE (KAF)12314983
42HOPI1PEND OREILLE-PEND OREILLE LAKE NR HOPE05-10-2021LAKE ELEVATION (FT)MMM
43HOTI1BRUNEAU-NEAR HOT SPRINGS05-10-2021DISCHARGE (KAF)2012516
44HWRI1BIG LOST-AT HOWELL RANCH NEAR CHILLY05-10-2021DISCHARGE (KAF)1815511
45IHDW1SNAKE-ICE HARBOR DAM05-10-2021INFLOW (KAF)97551559263
46IPDI1HENRYS FORK-ISLAND PARK DAM05-10-2021INFLOW (KAF)12420162
47JDAO3COLUMBIA-JOHN DAY DAM05-10-2021INFLOW (KAF)410625966969
48JKSW4SNAKE-NEAR JACKSON05-10-2021DISCHARGE (KAF)1065168563
49JLKW4SNAKE-JACKSON LAKE AT DAM05-10-2021INFLOW (KAF)42573058
50KADW1KACHESS-KACHESS DAM05-10-2021INFLOW (KAF)7571105
51KEDW1YAKIMA-KEECHELUS LAKE05-10-2021INFLOW (KAF)8879112
52KERM8FLATHEAD-SELI’Š KSANKA QLISPE’ DAM05-10-2021INFLOW (KAF)3455446377
53KIOW1YAKIMA-AT KIONA05-10-2021DISCHARGE (KAF)55365185
54LAUW1KETTLE-AT LAURIER05-10-2021DISCHARGE (KAF)862134864
55LEOI1KOOTENAI-AT LEONIA05-10-2021DISCHARGE (KAF)3014504160
56LGDW1SNAKE-LOWER GRANITE DAM05-10-2021INFLOW (KAF)96961560662
57LGSW1SNAKE-LITTLE GOOSE DAM05-10-2021INFLOW (KAF)96961564562
58LLKW1SPOKANE-AT LONGLAKE05-10-2021INFLOW (KAF)1134193059
59LMNW1SNAKE-LOWER MONUMENTAL DAM05-10-2021INFLOW (KAF)97481567562
60LUCI1BOISE-LUCKY PEAK DAM05-10-2021INFLOW (KAF)797MM
61LWRI1LITTLE WOOD-LITTLE WOOD DAM05-10-2021INFLOW (KAF)65510
62LYDM8KOOTENAI-LIBBY DAM05-10-2021INFLOW (KAF)4376562678
63MACI1BIG LOST-MACKAY RESERVOIR NEAR MACKAY05-10-2021INFLOW (KAF)1715511
64MAGI1BIG WOOD-MAGIC DAM05-10-2021INFLOW (KAF)2515816
65MCDW1COLUMBIA-MCNARY DAM05-10-2021INFLOW (KAF)400395839669
66MILI1SNAKE-AT MILNER05-10-2021DISCHARGE (KAF)14316786
67MODO3DESCHUTES-AT MOODY NR BIGGS05-10-2021DISCHARGE (KAF)1080119590
68MONO3NF JOHN DAY-AT MONUMENT05-10-2021DISCHARGE (KAF)13428847
69MYKO3MCKAY CREEK-NEAR PILOT ROCK05-10-2021DISCHARGE (KAF)4594
70NACW1NACHES-NEAR NACHES05-10-2021DISCHARGE (KAF)39840299
71NOXM8CLARK FORK-NOXON RAPIDS DAM05-10-2021INFLOW (KAF)5784761676
72ORFI1CLEARWATER-AT OROFINO05-10-2021DISCHARGE (KAF)2406341171
73OWYO3OWYHEE-OWYHEE DAM05-10-2021INFLOW (KAF)4213132
74PARI1BOISE-NEAR PARMA05-10-2021DISCHARGE (KAF)23033070
75PARW1YAKIMA-NEAR PARKER05-10-2021DISCHARGE (KAF)26231284
76PATW1METHOW-NEAR PATEROS05-10-2021DISCHARGE (KAF)748737102
77PDTO3UMATILLA-AT PENDLETON05-10-2021DISCHARGE (KAF)6152117
78PESW1WENATCHEE-AT PESHASTIN05-10-2021DISCHARGE (KAF)1176120797
79PIHI1PORTNEUF-AT POCATELLO05-10-2021DISCHARGE (KAF)144532
80PITW1KLICKITAT-NEAR PITT05-10-2021DISCHARGE (KAF)29835684
81PLDI1SF SNAKE-PALISADES DAM05-10-2021INFLOW (KAF)1715293658
82PRTI1PRIEST-NEAR PRIEST RIVER05-10-2021DISCHARGE (KAF)30658952
83PRWW1COLUMBIA-PRIEST RAPIDS DAM05-10-2021INFLOW (KAF)295524134571
84RCCM8ROCK CREEK-NEAR CLINTON05-10-2021DISCHARGE (KAF)23023797
85REXI1HENRYS FORK-AT REXBURG05-10-2021DISCHARGE (KAF)28762846
86RIDI1WILLOW CREEK-RIRIE DAM05-10-2021INFLOW (KAF)82236
87RILW1TIETON-RIMROCK LAKE NEAR RIMROCK05-10-2021INFLOW (KAF)173166104
88RRHW1COLUMBIA-ROCKY REACH DAM05-10-2021INFLOW (KAF)283483362584
89SATI1ST MARIES-NEAR SANTA05-10-2021DISCHARGE (KAF)356752
90SERO3JOHN DAY-AT SERVICE CK05-10-2021DISCHARGE (KAF)19540149
91SHYI1SNAKE-NEAR SHELLEY05-10-2021DISCHARGE (KAF)1442204970
92SIFI1SNAKE-AB EAGLE ROCK NR IDAHO FALLS05-10-2021DISCHARGE (KAF)1612233069
93SJMI1ST JOE-AT ST MARIES05-10-2021STAGE (FT)MMM
94SNAI1SNAKE-AT BLACKFOOT05-10-2021DISCHARGE (KAF)839151156
95SPDI1CLEARWATER-AT SPALDING05-10-2021DISCHARGE (KAF)3955504678
96SPOW1SPOKANE-AT SPOKANE05-10-2021DISCHARGE (KAF)962MM
97SRGM8CLARK FORK-AT ST REGIS05-10-2021DISCHARGE (KAF)2367306177
98STRM8ST. REGIS-NEAR ST. REGIS05-10-2021DISCHARGE (KAF)12517372
99SWAI1SNAKE-BELOW SWAN FALLS05-10-2021DISCHARGE (KAF)1504206573
100TCHW1WALLA WALLA-NEAR TOUCHET05-10-2021DISCHARGE (KAF)284267
101TDAO3COLUMBIA-THE DALLES DAM05-10-2021INFLOW (KAF)412595337077
102TEAI1TETON-NEAR ST. ANTHONY05-10-2021DISCHARGE (KAF)22933568
103TNAW1TEANAWAY-BELOW FORKS05-10-2021DISCHARGE (KAF)7059118
104TONW1OKANOGAN-NEAR TONASKET05-10-2021DISCHARGE (KAF)1286129999
105TRYO3GRANDE RONDE-TROY05-10-2021DISCHARGE (KAF)60981275
106UMAO3UMATILLA-NEAR UMATILLA05-10-2021DISCHARGE (KAF)2817166
107UMTW1YAKIMA-AT UMTANUM05-10-2021DISCHARGE (KAF)79881598
108UNDW1WHITE SALMON-NEAR UNDERWOOD05-10-2021DISCHARGE (KAF)19324778
109WANW1COLUMBIA-WANAPUM DAM05-10-2021INFLOW (KAF)295444044873
110WEII1SNAKE-AT WEISER05-10-2021DISCHARGE (KAF)2460382764
111WELW1COLUMBIA-WELLS DAM05-10-2021INFLOW (KAF)274063298483
112WGCM8MF FLATHEAD-NEAR WEST GLACIER05-10-2021DISCHARGE (KAF)1155137984
113WHBI1SALMON-AT WHITEBIRD05-10-2021DISCHARGE (KAF)2520506450
114WRMO3MALHEUR-WARM SPRINGS DAM05-10-2021INFLOW (KAF)51049
115WSRI1WEISER-NEAR WEISER05-10-2021DISCHARGE (KAF)12321457